Weather History for KAXX - August, 2013

Change the Weather History Date:

Monday, August 5, 2013

  Actual Average (KSKX) Record (KSKX)
Temperature  
Mean Temperature 64 °F -  
Max Temperature 77 °F 80 °F 89 °F (2003)
Min Temperature 52 °F 49 °F 41 °F (1996)
Growing Degree Days 14 (Base 50)    
Moisture  
Dew Point 47 °F    
Average Humidity 59    
Maximum Humidity 94    
Minimum Humidity 29    
Precipitation  
Precipitation 0.00 in - - ()
Sea Level Pressure  
Sea Level Pressure 30.40 in    
Wind  
Wind Speed 7 mph (SW)    
Max Wind Speed 20 mph    
Max Gust Speed 24 mph    
Visibility 10 miles    
Events Rain    
Averages and records for this station are not official NWS values.
T = Trace of Precipitation, MM = Missing Value Source: NWS Daily Summary

Daily Weather History Graph

Daily Weather History Graph

Search for Another Location

Airport or City:

Trip Planner

Search our weather history database for the weather conditions in past years. The results will help you decide how hot, cold, wet, or windy it might be!

Date:

Astronomy

Aug. 05, 2013 Rise Set
Actual Time 6:11 AM MDT 8:02 PM MDT
Civil Twilight 5:42 AM MDT 8:30 PM MDT
Nautical Twilight 5:08 AM MDT 9:04 PM MDT
Astronomical Twilight 4:32 AM MDT 9:40 PM MDT
Moon 5:08 AM MDT (8/5) 7:05 PM MDT (8/5)
Length of Visible Light 14h 47m
Length of Day
13h 51m
Waning Crescent, 1% of the Moon is Illuminated
Aug 5
Waning Crescent
Aug 6
New
Aug 14
First Quarter
Aug 20
Full
Aug 28
Last Quarter

Hourly Weather History & Observations

Time (MDT) Temp. Dew Point Humidity Pressure Visibility Wind Dir Wind Speed Gust Speed Precip Events Conditions
12:15 AM 60.3 °F 47.3 °F 62% 30.49 in 10.0 mi WSW 10.4 mph 18.4 mph N/A   Scattered Clouds
12:35 AM 59.4 °F 47.5 °F 65% 30.49 in 10.0 mi SSW 6.9 mph - N/A   Clear
12:55 AM 58.5 °F 48.0 °F 68% 30.49 in 10.0 mi WSW 10.4 mph - N/A   Clear
1:15 AM 57.2 °F 48.6 °F 73% 30.50 in 10.0 mi SW 4.6 mph - N/A   Scattered Clouds
1:35 AM 56.5 °F 48.7 °F 75% 30.48 in 10.0 mi Calm Calm - N/A   Mostly Cloudy
1:55 AM 56.3 °F 49.3 °F 77% 30.48 in 10.0 mi South 4.6 mph - N/A   Overcast
2:15 AM 54.9 °F 50.5 °F 85% 30.46 in 10.0 mi Calm Calm - N/A Rain Light Rain
2:35 AM 54.9 °F 50.0 °F 84% 30.46 in 10.0 mi Calm Calm - N/A   Overcast
2:55 AM 54.1 °F 50.2 °F 86% 30.45 in 10.0 mi Calm Calm - N/A Rain Light Rain
3:15 AM 53.6 °F 50.9 °F 91% 30.44 in 10.0 mi Calm Calm - N/A   Light Drizzle
3:35 AM 53.6 °F 50.9 °F 91% 30.43 in 10.0 mi Calm Calm - N/A   Overcast
3:55 AM 53.6 °F 50.7 °F 90% 30.42 in 10.0 mi Calm Calm - N/A Rain Light Rain
4:15 AM 52.7 °F 50.5 °F 92% 30.42 in 10.0 mi Calm Calm - N/A   Overcast
4:35 AM 52.2 °F 50.4 °F 94% 30.42 in 10.0 mi Calm Calm - N/A   Mostly Cloudy
4:55 AM 52.7 °F 50.9 °F 94% 30.42 in 10.0 mi Calm Calm - N/A   Mostly Cloudy
5:15 AM 52.7 °F 50.4 °F 92% 30.41 in 10.0 mi Calm Calm - N/A   Scattered Clouds
5:35 AM 52.0 °F 50.2 °F 94% 30.42 in 10.0 mi Calm Calm - N/A   Clear
5:55 AM 52.3 °F 49.6 °F 91% 30.42 in 10.0 mi Calm Calm - N/A   Clear
6:15 AM 52.2 °F 50.0 °F 92% 30.41 in 10.0 mi Calm Calm - N/A   Clear
6:35 AM 52.5 °F 49.5 °F 89% 30.41 in 10.0 mi East 5.8 mph - N/A   Scattered Clouds
6:55 AM 55.0 °F 48.4 °F 78% 30.42 in 10.0 mi Calm Calm - N/A   Scattered Clouds
7:15 AM 53.8 °F 50.0 °F 87% 30.43 in 10.0 mi Calm Calm - N/A   Clear
7:35 AM 54.7 °F 50.4 °F 85% 30.42 in 10.0 mi Calm Calm - N/A   Clear
7:55 AM 56.3 °F 50.4 °F 80% 30.42 in 10.0 mi SE 6.9 mph - N/A   Clear
8:15 AM 57.9 °F 48.4 °F 71% 30.43 in 10.0 mi SSE 6.9 mph - N/A   Clear
8:35 AM 58.6 °F 48.0 °F 68% 30.43 in 10.0 mi SSE 5.8 mph - N/A   Clear
8:55 AM 60.4 °F 48.4 °F 64% 30.43 in 10.0 mi SE 5.8 mph - N/A   Clear
9:15 AM 61.7 °F 48.6 °F 62% 30.43 in 10.0 mi SSE 4.6 mph - N/A   Clear
9:35 AM 63.9 °F 48.4 °F 57% 30.42 in 10.0 mi SW 5.8 mph - N/A   Clear
9:55 AM 65.1 °F 46.8 °F 51% 30.42 in 10.0 mi Calm Calm - N/A   Clear
10:15 AM 66.6 °F 47.8 °F 51% 30.42 in 10.0 mi SE 3.5 mph - N/A   Clear
10:35 AM 68.4 °F 47.5 °F 47% 30.42 in 10.0 mi West 11.5 mph 16.1 mph N/A   Clear
10:55 AM 68.7 °F 46.0 °F 44% 30.42 in 10.0 mi WSW 9.2 mph 19.6 mph N/A   Clear
11:15 AM 68.7 °F 45.5 °F 43% 30.42 in 10.0 mi WSW 12.7 mph 18.4 mph N/A   Clear
11:35 AM 69.3 °F 46.2 °F 44% 30.42 in 10.0 mi West 15.0 mph 21.9 mph N/A   Clear
11:55 AM 72.0 °F 45.1 °F 38% 30.41 in 10.0 mi WSW 13.8 mph - N/A   Scattered Clouds
12:15 PM 71.1 °F 45.1 °F 39% 30.41 in 10.0 mi WSW 17.3 mph - N/A   Scattered Clouds
12:35 PM 72.3 °F 44.1 °F 36% 30.40 in 10.0 mi SW 15.0 mph 21.9 mph N/A   Clear
12:55 PM 73.0 °F 46.0 °F 38% 30.40 in 10.0 mi West 16.1 mph 21.9 mph N/A   Scattered Clouds
1:15 PM 72.0 °F 44.1 °F 37% 30.39 in 10.0 mi WSW 17.3 mph 21.9 mph N/A   Scattered Clouds
1:35 PM 73.4 °F 43.7 °F 34% 30.39 in 10.0 mi WSW 16.1 mph 21.9 mph N/A   Scattered Clouds
1:55 PM 74.1 °F 45.3 °F 36% 30.38 in 10.0 mi West 13.8 mph 20.7 mph N/A   Scattered Clouds
2:15 PM 74.5 °F 45.1 °F 35% 30.37 in 10.0 mi SW 15.0 mph 20.7 mph N/A   Scattered Clouds
2:35 PM 75.2 °F 46.2 °F 36% 30.37 in 10.0 mi West 17.3 mph 20.7 mph N/A   Clear
2:55 PM 75.0 °F 45.3 °F 35% 30.36 in 10.0 mi WSW 19.6 mph 23.0 mph N/A   Clear
3:15 PM 76.1 °F 45.5 °F 34% 30.35 in 10.0 mi WSW 15.0 mph 18.4 mph N/A   Clear
3:35 PM 76.1 °F 46.8 °F 35% 30.35 in 10.0 mi WSW 12.7 mph 20.7 mph N/A   Clear
3:55 PM 75.9 °F 46.4 °F 35% 30.34 in 10.0 mi WNW 12.7 mph 24.2 mph N/A   Clear
4:15 PM 75.9 °F 46.2 °F 35% 30.34 in 10.0 mi West 12.7 mph 18.4 mph N/A   Clear
4:35 PM 76.1 °F 45.3 °F 33% 30.33 in 10.0 mi West 8.1 mph 16.1 mph N/A   Clear
4:55 PM 76.3 °F 44.8 °F 33% 30.33 in 10.0 mi West 11.5 mph 18.4 mph N/A   Clear
5:15 PM 77.2 °F 44.1 °F 31% 30.33 in 10.0 mi West 9.2 mph - N/A   Scattered Clouds
5:35 PM 76.5 °F 44.1 °F 31% 30.32 in 10.0 mi West 10.4 mph - N/A   Scattered Clouds
5:55 PM 75.7 °F 42.6 °F 31% 30.32 in 10.0 mi SW 11.5 mph 16.1 mph N/A   Clear
6:15 PM 76.1 °F 42.1 °F 30% 30.32 in 10.0 mi West 11.5 mph - N/A   Clear
6:35 PM 74.1 °F 40.1 °F 29% 30.33 in 10.0 mi SSW 16.1 mph 23.0 mph N/A   Scattered Clouds
6:55 PM 70.9 °F 41.7 °F 35% 30.34 in 10.0 mi South 12.7 mph 18.4 mph N/A   Scattered Clouds
7:15 PM 68.0 °F 43.5 °F 41% 30.33 in 10.0 mi South 12.7 mph - N/A   Clear
7:35 PM 66.9 °F 44.2 °F 44% 30.34 in 10.0 mi South 11.5 mph - N/A   Clear
7:55 PM 66.2 °F 43.9 °F 44% 30.34 in 10.0 mi SSW 8.1 mph - N/A   Clear
8:15 PM 65.3 °F 44.6 °F 47% 30.35 in 10.0 mi SSW 6.9 mph - N/A   Clear
8:35 PM 65.1 °F 46.6 °F 51% 30.36 in 10.0 mi South 4.6 mph - N/A Rain Light Rain
8:55 PM 64.2 °F 46.4 °F 52% 30.37 in 10.0 mi NNE 6.9 mph - N/A   Mostly Cloudy
9:15 PM 64.0 °F 48.2 °F 56% 30.39 in 10.0 mi NNE 11.5 mph 17.3 mph N/A   Overcast
9:35 PM 63.5 °F 48.0 °F 57% 30.39 in 10.0 mi NNE 9.2 mph - N/A   Overcast
9:55 PM 62.2 °F 47.3 °F 58% 30.39 in 10.0 mi NNE 10.4 mph - N/A   Scattered Clouds
10:15 PM 59.4 °F 47.5 °F 65% 30.40 in 10.0 mi North 6.9 mph - N/A   Clear
10:35 PM 59.7 °F 47.5 °F 64% 30.39 in 10.0 mi Calm Calm - N/A   Clear
10:55 PM 57.2 °F 46.9 °F 69% 30.39 in 10.0 mi Calm Calm - N/A   Clear
11:15 PM 55.9 °F 46.9 °F 72% 30.39 in 10.0 mi Calm Calm - N/A   Clear
11:35 PM 54.5 °F 48.2 °F 79% 30.39 in 10.0 mi North 3.5 mph - N/A   Clear
11:55 PM 53.1 °F 47.7 °F 82% 30.40 in 10.0 mi Calm Calm - N/A   Clear